| time (UTC) | temp F | wind direction | speed MPH | gust MPH | rain 1hr in | rain 24hr in | rain mn in | humidity % | barometer mb |
| 20260507084536 | 53 | 160 | 3.0 | 7.0 | 0.00 | 0.00 | 0.00 | 80 | 1020.6 |
| 20260507083034 | 53 | 183 | 1.0 | 8.0 | 0.00 | 0.00 | 0.00 | 81 | 1020.6 |
| 20260507081531 | 53 | 152 | 2.0 | 8.0 | 0.00 | 0.00 | 0.00 | 81 | 1020.6 |
| 20260507080030 | 53 | 169 | 3.0 | 10.0 | 0.00 | 0.00 | 0.00 | 80 | 1020.5 |
| 20260507074528 | 53 | 186 | 4.0 | 12.0 | 0.00 | 0.00 | 0.00 | 80 | 1020.4 |
| 20260507073027 | 54 | 202 | 2.0 | 10.0 | 0.00 | 0.00 | 0.00 | 80 | 1020.3 |
| 20260507071524 | 54 | 188 | 3.0 | 11.0 | 0.00 | 0.00 | 0.00 | 79 | 1020.3 |
| 20260507070028 | 54 | 175 | 4.0 | 13.0 | 0.00 | 0.00 | 0.00 | 79 | 1020.1 |
| 20260507064524 | 54 | 146 | 2.0 | 14.0 | 0.00 | 0.00 | 0.00 | 81 | 1020.0 |
| 20260507063020 | 54 | 144 | 3.0 | 9.0 | 0.00 | 0.00 | 0.00 | 81 | 1019.9 |
| 20260507061521 | 54 | 130 | 4.0 | 11.0 | 0.00 | 0.00 | 0.00 | 81 | 1019.9 |
| 20260507060019 | 54 | 165 | 3.0 | 8.0 | 0.00 | 0.00 | 0.00 | 81 | 1019.9 |
| 20260507054524 | 54 | 183 | 2.0 | 8.0 | 0.00 | 0.00 | 0.00 | 82 | 1019.8 |
| 20260507053018 | 54 | 179 | 3.0 | 11.0 | 0.00 | 0.00 | 0.00 | 82 | 1019.8 |
| 20260507051518 | 54 | 166 | 4.0 | 12.0 | 0.00 | 0.00 | 0.00 | 82 | 1019.8 |
| 20260507050022 | 55 | 155 | 2.0 | 7.0 | 0.00 | 0.00 | 0.00 | 81 | 1020.0 |
| 20260507044517 | 55 | 184 | 2.0 | 8.0 | 0.00 | 0.00 | 0.00 | 80 | 1020.0 |
| 20260507043022 | 55 | 183 | 4.0 | 9.0 | 0.00 | 0.00 | 0.00 | 80 | 1019.9 |
| 20260507041517 | 55 | 179 | 1.0 | 8.0 | 0.00 | 0.00 | 0.00 | 81 | 1019.8 |
| 20260507040015 | 55 | 157 | 3.0 | 9.0 | 0.00 | 0.00 | 0.00 | 81 | 1019.9 |
| 20260507034515 | 55 | 163 | 2.0 | 8.0 | 0.00 | 0.00 | 0.00 | 81 | 1019.8 |
| 20260507033014 | 55 | 157 | 4.0 | 10.0 | 0.00 | 0.00 | 0.00 | 81 | 1019.8 |
| 20260507031514 | 54 | 197 | 1.0 | 8.0 | 0.00 | 0.00 | 0.00 | 83 | 1019.6 |
| 20260507030013 | 54 | 165 | 3.0 | 9.0 | 0.00 | 0.00 | 0.00 | 83 | 1019.6 |
| 20260507024514 | 54 | 187 | 3.0 | 7.0 | 0.00 | 0.00 | 0.00 | 82 | 1019.7 |
| 20260507023012 | 55 | 157 | 3.0 | 8.0 | 0.00 | 0.00 | 0.00 | 81 | 1019.6 |
| 20260507021512 | 55 | 213 | 3.0 | 8.0 | 0.00 | 0.00 | 0.00 | 81 | 1019.6 |
| 20260507020011 | 55 | 198 | 4.0 | 8.0 | 0.00 | 0.00 | 0.00 | 82 | 1019.6 |
| 20260507014513 | 55 | 178 | 2.0 | 6.0 | 0.00 | 0.00 | 0.00 | 82 | 1019.7 |
| 20260507013020 | 56 | 184 | 3.0 | 8.0 | 0.00 | 0.00 | 0.00 | 79 | 1019.7 |
| 20260507011513 | 56 | 156 | 4.0 | 10.0 | 0.00 | 0.00 | 0.00 | 78 | 1019.6 |
| 20260507010013 | 56 | 165 | 2.0 | 8.0 | 0.00 | 0.00 | 0.00 | 79 | 1019.6 |
| 20260507004509 | 56 | 167 | 3.0 | 9.0 | 0.00 | 0.00 | 0.00 | 79 | 1019.8 |
| 20260507003008 | 56 | 165 | 3.0 | 10.0 | 0.00 | 0.00 | 0.00 | 79 | 1019.8 |
| 20260507001510 | 56 | 186 | 2.0 | 10.0 | 0.00 | 0.00 | 0.00 | 80 | 1019.7 |
| 20260507000007 | 56 | 219 | 2.0 | 9.0 | 0.00 | 0.00 | 0.00 | 79 | 1019.6 |
| 20260506234506 | 56 | 180 | 1.0 | 7.0 | 0.00 | 0.00 | 0.00 | 80 | 1019.6 |
| 20260506233008 | 56 | 173 | 3.0 | 9.0 | 0.00 | 0.00 | 0.00 | 79 | 1019.6 |
| 20260506231506 | 56 | 151 | 2.0 | 8.0 | 0.00 | 0.00 | 0.00 | 78 | 1019.7 |
| 20260506230008 | 56 | 173 | 3.0 | 9.0 | 0.00 | 0.00 | 0.00 | 79 | 1019.7 |
| 20260506224505 | 57 | 179 | 2.0 | 10.0 | 0.00 | 0.00 | 0.00 | 78 | 1019.9 |
| 20260506223004 | 57 | 172 | 5.0 | 12.0 | 0.00 | 0.00 | 0.00 | 76 | 1020.0 |
| 20260506221502 | 57 | 184 | 3.0 | 7.0 | 0.00 | 0.00 | 0.00 | 77 | 1019.8 |
| 20260506220100 | 56 | 144 | 4.0 | 12.0 | 0.00 | 0.00 | 0.00 | 79 | 1019.9 |
| 20260506214557 | 55 | 181 | 3.0 | 9.0 | 0.00 | 0.00 | 0.00 | 81 | 1020.0 |
| 20260506213112 | 55 | 155 | 4.0 | 11.0 | 0.00 | 0.00 | 0.00 | 80 | 1019.9 |
| 20260506211556 | 55 | 166 | 3.0 | 7.0 | 0.00 | 0.00 | 0.00 | 81 | 1020.1 |
| 20260506210054 | 55 | 191 | 3.0 | 9.0 | 0.00 | 0.00 | 0.00 | 82 | 1020.1 |
| 20260506204552 | 55 | 229 | 4.0 | 8.0 | 0.00 | 0.00 | 0.00 | 81 | 1019.9 |
| 20260506203052 | 55 | 171 | 3.0 | 7.0 | 0.00 | 0.00 | 0.00 | 83 | 1019.8 |
| 20260506201547 | 54 | 192 | 2.0 | 6.0 | 0.00 | 0.00 | 0.00 | 85 | 1020.0 |
| 20260506200047 | 53 | 161 | 2.0 | 6.0 | 0.00 | 0.00 | 0.00 | 84 | 1019.9 |
| 20260506194548 | 54 | 180 | 1.0 | 7.0 | 0.00 | 0.00 | 0.00 | 85 | 1020.0 |
| 20260506193044 | 54 | 127 | 2.0 | 10.0 | 0.00 | 0.00 | 0.00 | 84 | 1019.9 |
| 20260506191543 | 54 | 173 | 4.0 | 7.0 | 0.00 | 0.00 | 0.00 | 84 | 1019.7 |
| 20260506190040 | 54 | 146 | 2.0 | 8.0 | 0.00 | 0.00 | 0.00 | 85 | 1019.6 |
| 20260506184549 | 53 | 176 | 2.0 | 7.0 | 0.00 | 0.00 | 0.00 | 87 | 1019.6 |
| 20260506183052 | 53 | 182 | 2.0 | 9.0 | 0.00 | 0.00 | 0.00 | 87 | 1019.7 |
| 20260506181607 | 53 | 196 | 2.0 | 9.0 | 0.00 | 0.00 | 0.00 | 86 | 1019.4 |
| 20260506180037 | 53 | 188 | 2.0 | 5.0 | 0.00 | 0.00 | 0.00 | 87 | 1019.5 |
| 20260506174536 | 52 | 194 | 4.0 | 9.0 | 0.00 | 0.00 | 0.00 | 87 | 1019.5 |
| 20260506173053 | 52 | 175 | 3.0 | 6.0 | 0.00 | 0.00 | 0.00 | 87 | 1019.3 |
| 20260506171535 | 52 | 193 | 3.0 | 6.0 | 0.00 | 0.00 | 0.00 | 87 | 1019.3 |
| 20260506170038 | 52 | 167 | 2.0 | 9.0 | 0.00 | 0.00 | 0.00 | 87 | 1019.2 |
| 20260506164537 | 52 | 170 | 1.0 | 7.0 | 0.00 | 0.00 | 0.00 | 87 | 1019.3 |
| 20260506163037 | 52 | 196 | 3.0 | 8.0 | 0.00 | 0.00 | 0.00 | 87 | 1019.3 |
| 20260506161530 | 52 | 172 | 3.0 | 8.0 | 0.00 | 0.00 | 0.00 | 87 | 1019.2 |
| 20260506160026 | 52 | 225 | 2.0 | 10.0 | 0.00 | 0.00 | 0.00 | 87 | 1019.4 |
| 20260506154524 | 52 | 202 | 4.0 | 10.0 | 0.00 | 0.00 | 0.00 | 86 | 1019.2 |
| 20260506153023 | 52 | 211 | 4.0 | 8.0 | 0.00 | 0.00 | 0.00 | 87 | 1019.2 |
| 20260506151521 | 52 | 208 | 3.0 | 10.0 | 0.00 | 0.00 | 0.00 | 88 | 1018.9 |
| 20260506150017 | 52 | 197 | 3.0 | 10.0 | 0.00 | 0.00 | 0.00 | 88 | 1018.6 |
| 20260506144520 | 52 | 196 | 2.0 | 11.0 | 0.00 | 0.00 | 0.00 | 87 | 1018.6 |
| 20260506143015 | 52 | 168 | 4.0 | 10.0 | 0.00 | 0.00 | 0.00 | 88 | 1018.5 |
| 20260506141513 | 52 | 183 | 4.0 | 9.0 | 0.00 | 0.00 | 0.00 | 87 | 1018.5 |
| 20260506140015 | 52 | 167 | 4.0 | 10.0 | 0.00 | 0.00 | 0.00 | 87 | 1018.6 |
| 20260506134507 | 0 | 0.0 | 0.0 | 0.00 | 0.00 | 0.00 | 1018.2 | ||
| 20260506133003 | 0 | 0.0 | 0.0 | 0.00 | 0.00 | 0.00 | 1017.8 | ||
| 20260506131600 | 52 | 182 | 3.0 | 12.0 | 0.00 | 0.00 | 0.00 | 87 | 1017.5 |
| 20260506130104 | 52 | 150 | 3.0 | 12.0 | 0.00 | 0.00 | 0.00 | 87 | 1017.7 |
| 20260506124608 | 52 | 186 | 4.0 | 12.0 | 0.00 | 0.00 | 0.00 | 87 | 1017.7 |
| 20260506123056 | 52 | 155 | 3.0 | 10.0 | 0.00 | 0.00 | 0.00 | 87 | 1017.9 |
| 20260506121556 | 52 | 184 | 4.0 | 12.0 | 0.00 | 0.00 | 0.00 | 87 | 1017.7 |
| 20260506120053 | 52 | 173 | 5.0 | 14.0 | 0.00 | 0.00 | 0.00 | 87 | 1017.4 |
| 20260506114553 | 52 | 188 | 5.0 | 11.0 | 0.00 | 0.00 | 0.00 | 87 | 1017.3 |
| 20260506113049 | 52 | 146 | 4.0 | 12.0 | 0.00 | 0.00 | 0.00 | 87 | 1017.2 |
| 20260506111547 | 52 | 180 | 4.0 | 12.0 | 0.00 | 0.00 | 0.00 | 87 | 1017.2 |
| 20260506110046 | 52 | 194 | 3.0 | 16.0 | 0.00 | 0.00 | 0.00 | 88 | 1017.1 |
| 20260506104544 | 52 | 176 | 3.0 | 10.0 | 0.00 | 0.00 | 0.00 | 88 | 1016.8 |
| 20260506103052 | 52 | 209 | 3.0 | 9.0 | 0.00 | 0.00 | 0.00 | 88 | 1016.6 |
| 20260506101540 | 52 | 207 | 4.0 | 10.0 | 0.00 | 0.00 | 0.00 | 87 | 1016.4 |
| 20260506100038 | 52 | 103 | 4.0 | 11.0 | 0.00 | 0.00 | 0.00 | 87 | 1016.2 |
| 20260506094538 | 52 | 155 | 5.0 | 13.0 | 0.00 | 0.00 | 0.00 | 87 | 1016.1 |
| 20260506093034 | 52 | 181 | 3.0 | 9.0 | 0.00 | 0.00 | 0.00 | 87 | 1016.0 |
| 20260506091534 | 52 | 136 | 4.0 | 14.0 | 0.00 | 0.00 | 0.00 | 87 | 1015.9 |
| 20260506090033 | 53 | 173 | 4.0 | 13.0 | 0.00 | 0.00 | 0.00 | 87 | 1015.9 |